CSN6143 ZYCC-ZBAD

Flight info

Callsign CSN6143
Flight time 1h 36m
Altitude 32100
Route BUTET9D BUTET G341 TGO G212 BUMDU BUMDU6M
Aircraft A20N/M-SDE2E3FGHIRWXY/LB1

Departure

Time 2026-04-22 07:11
Airport Changchun Longjia International Airport (ZYCC)

Arrival

Time 2026-04-22 08:48
Airport Beijing Daxing International Airport (ZBAD)
Time Latitude Longitude Altitude Speed Heading
2026-04-22 06:57 43.99694 125.69461 714 ft 0 kts 139°
2026-04-22 07:02 43.99703 125.69450 714 ft 2 kts 139°
2026-04-22 07:02 43.99714 125.69437 714 ft 2 kts 140°
2026-04-22 07:03 43.99725 125.69424 714 ft 2 kts 139°
2026-04-22 07:03 43.99733 125.69415 714 ft 1 kts 140°
2026-04-22 07:03 43.99741 125.69398 714 ft 2 kts 107°
2026-04-22 07:03 43.99743 125.69378 714 ft 2 kts 79°
2026-04-22 07:04 43.99738 125.69360 714 ft 1 kts 54°
2026-04-22 07:04 43.99734 125.69353 714 ft 1 kts 47°
2026-04-22 07:04 43.99733 125.69351 714 ft 0 kts 49°
2026-04-22 07:04 43.99733 125.69352 714 ft 0 kts 49°
2026-04-22 07:06 43.99733 125.69353 714 ft 0 kts 49°
2026-04-22 07:07 43.99741 125.69364 714 ft 2 kts 50°
2026-04-22 07:07 43.99760 125.69396 714 ft 6 kts 49°
2026-04-22 07:07 43.99797 125.69455 714 ft 9 kts 49°
2026-04-22 07:07 43.99851 125.69521 714 ft 10 kts
2026-04-22 07:08 43.99914 125.69463 714 ft 11 kts 320°
2026-04-22 07:08 43.99983 125.69450 714 ft 11 kts 43°
2026-04-22 07:08 44.00039 125.69540 714 ft 12 kts 49°
2026-04-22 07:08 44.00103 125.69643 714 ft 15 kts 49°
2026-04-22 07:09 44.00180 125.69767 714 ft 17 kts 50°
2026-04-22 07:09 44.00259 125.69894 714 ft 17 kts 49°
2026-04-22 07:09 44.00338 125.70022 714 ft 17 kts 50°
2026-04-22 07:09 44.00405 125.70130 714 ft 9 kts 50°
2026-04-22 07:10 44.00463 125.70142 714 ft 10 kts 317°
2026-04-22 07:10 44.00521 125.70073 714 ft 11 kts 320°
2026-04-22 07:10 44.00542 125.69981 714 ft 10 kts 230°
2026-04-22 07:10 44.00499 125.69916 714 ft 19 kts 229°
2026-04-22 07:11 44.00281 125.69560 714 ft 82 kts 230°
2026-04-22 07:11 43.99764 125.68735 715 ft 141 kts 230°
2026-04-22 07:11 43.99090 125.67680 1136 ft 148 kts 233°
2026-04-22 07:11 43.98398 125.66595 1627 ft 154 kts 234°
2026-04-22 07:12 43.97697 125.65468 2219 ft 156 kts 235°
2026-04-22 07:12 43.96992 125.64316 2729 ft 165 kts 236°
2026-04-22 07:12 43.96224 125.63052 3143 ft 180 kts 237°
2026-04-22 07:12 43.95379 125.61655 3543 ft 199 kts 236°
2026-04-22 07:13 43.94439 125.60122 3915 ft 223 kts 234°
2026-04-22 07:13 43.93399 125.58459 4508 ft 232 kts 234°
2026-04-22 07:13 43.92321 125.56750 5227 ft 236 kts 234°
2026-04-22 07:13 43.91254 125.55059 5976 ft 237 kts 234°
2026-04-22 07:14 43.90169 125.53336 6731 ft 238 kts 234°
2026-04-22 07:14 43.89090 125.51621 7451 ft 241 kts 234°
2026-04-22 07:14 43.87980 125.49860 8176 ft 244 kts 235°
2026-04-22 07:14 43.86880 125.48112 8897 ft 246 kts 236°
2026-04-22 07:15 43.85754 125.46317 9607 ft 249 kts 236°
2026-04-22 07:15 43.84619 125.44510 10311 ft 252 kts 237°
2026-04-22 07:15 43.83456 125.42664 11031 ft 254 kts 238°
2026-04-22 07:15 43.82304 125.40840 11749 ft 255 kts 239°
2026-04-22 07:16 43.81148 125.39008 12450 ft 257 kts 240°
2026-04-22 07:16 43.79966 125.37131 13142 ft 259 kts 241°
2026-04-22 07:16 43.79007 125.35143 13796 ft 245 kts 260°
2026-04-22 07:16 43.78624 125.32935 14510 ft 230 kts 275°
2026-04-22 07:17 43.78516 125.30753 15192 ft 231 kts 275°
2026-04-22 07:17 43.78415 125.28562 15844 ft 233 kts 275°
2026-04-22 07:17 43.78303 125.26335 16492 ft 235 kts 275°
2026-04-22 07:17 43.78186 125.24073 17153 ft 236 kts 275°
2026-04-22 07:18 43.78066 125.21839 17789 ft 237 kts 274°
2026-04-22 07:18 43.77942 125.19556 18409 ft 239 kts 274°
2026-04-22 07:18 43.77814 125.17282 19038 ft 240 kts 274°
2026-04-22 07:18 43.77685 125.14966 19491 ft 242 kts 274°
2026-04-22 07:19 43.77556 125.12666 19645 ft 242 kts 274°
2026-04-22 07:19 43.77427 125.10296 19658 ft 254 kts 274°
2026-04-22 07:19 43.77297 125.07782 19668 ft 277 kts 273°
2026-04-22 07:19 43.77150 125.05036 19668 ft 298 kts 272°
2026-04-22 07:20 43.76987 125.02085 19673 ft 319 kts 272°
2026-04-22 07:20 43.76806 124.98908 19672 ft 338 kts 271°
2026-04-22 07:20 43.76616 124.95605 19667 ft 352 kts 271°
2026-04-22 07:20 43.76417 124.92227 19662 ft 355 kts 271°
2026-04-22 07:21 43.76214 124.88808 19701 ft 358 kts 271°
2026-04-22 07:21 43.76013 124.85366 20139 ft 362 kts 271°
2026-04-22 07:21 43.75812 124.81938 20762 ft 361 kts 271°
2026-04-22 07:21 43.75608 124.78494 21294 ft 363 kts 271°
2026-04-22 07:22 43.75406 124.75015 21789 ft 365 kts 271°
2026-04-22 07:22 43.75199 124.71521 22254 ft 368 kts 271°
2026-04-22 07:22 43.74990 124.68010 22710 ft 370 kts 270°
2026-04-22 07:22 43.74777 124.64445 23183 ft 372 kts 270°
2026-04-22 07:23 43.74562 124.60886 23498 ft 374 kts 270°
2026-04-22 07:23 43.74346 124.57332 23547 ft 373 kts 270°
2026-04-22 07:23 43.74124 124.53729 23564 ft 373 kts 270°
2026-04-22 07:23 43.73897 124.50166 23567 ft 375 kts 269°
2026-04-22 07:24 43.73457 124.46645 23558 ft 379 kts 263°
2026-04-22 07:24 43.72722 124.43124 23568 ft 384 kts 257°
2026-04-22 07:24 43.71703 124.39700 23574 ft 388 kts 252°
2026-04-22 07:24 43.70521 124.36352 23563 ft 389 kts 251°
2026-04-22 07:25 43.69395 124.32961 23561 ft 384 kts 255°
2026-04-22 07:25 43.68563 124.29473 23870 ft 380 kts 261°
2026-04-22 07:25 43.68022 124.25989 24588 ft 371 kts 266°
2026-04-22 07:25 43.67730 124.22494 25129 ft 368 kts 269°
2026-04-22 07:26 43.67516 124.18945 25541 ft 370 kts 270°
2026-04-22 07:26 43.67312 124.15408 25910 ft 372 kts 270°
2026-04-22 07:26 43.67110 124.11858 26029 ft 380 kts 270°
2026-04-22 07:26 43.66899 124.08178 26233 ft 386 kts 270°
2026-04-22 07:27 43.66683 124.04472 26554 ft 388 kts 270°
2026-04-22 07:27 43.66466 124.00765 26897 ft 389 kts 270°
2026-04-22 07:27 43.66250 123.97056 27226 ft 390 kts 270°
2026-04-22 07:27 43.66030 123.93342 27527 ft 391 kts 270°
2026-04-22 07:28 43.65587 123.85865 28118 ft 393 kts 270°
2026-04-22 07:28 43.65362 123.82134 28531 ft 390 kts 270°
2026-04-22 07:28 43.65138 123.78435 28957 ft 388 kts 270°
2026-04-22 07:29 43.64913 123.74720 29360 ft 385 kts 270°
2026-04-22 07:29 43.64692 123.71081 29713 ft 384 kts 270°
2026-04-22 07:29 43.64468 123.67422 30064 ft 383 kts 270°
2026-04-22 07:29 43.64244 123.63775 30408 ft 382 kts 270°
2026-04-22 07:30 43.64021 123.60157 30711 ft 381 kts 270°
2026-04-22 07:30 43.63793 123.56482 30956 ft 382 kts 270°
2026-04-22 07:30 43.63565 123.52822 31151 ft 384 kts 270°
2026-04-22 07:30 43.63337 123.49169 31354 ft 385 kts 270°
2026-04-22 07:31 43.63106 123.45492 31547 ft 386 kts 269°
2026-04-22 07:31 43.62873 123.41843 31715 ft 387 kts 269°
2026-04-22 07:31 43.62637 123.38135 31867 ft 389 kts 270°
2026-04-22 07:31 43.62397 123.34409 32023 ft 390 kts 269°
2026-04-22 07:32 43.61916 123.26977 32071 ft 392 kts 269°
2026-04-22 07:32 43.61429 123.19480 32080 ft 392 kts 269°
2026-04-22 07:33 43.61046 123.12003 32082 ft 392 kts 270°
2026-04-22 07:33 43.60677 123.04532 32082 ft 392 kts 270°
2026-04-22 07:34 43.60295 122.97036 32086 ft 393 kts 270°
2026-04-22 07:34 43.59905 122.89542 32086 ft 394 kts 270°
2026-04-22 07:35 43.59509 122.82029 32089 ft 394 kts 270°
2026-04-22 07:35 43.59106 122.74509 32089 ft 394 kts 270°
2026-04-22 07:36 43.58698 122.66985 32086 ft 394 kts 269°
2026-04-22 07:36 43.58286 122.59495 32088 ft 395 kts 269°
2026-04-22 07:37 43.57865 122.51955 32082 ft 396 kts 269°
2026-04-22 07:37 43.57439 122.44397 32084 ft 396 kts 270°
2026-04-22 07:38 43.57009 122.36885 32083 ft 396 kts 270°
2026-04-22 07:38 43.56386 122.29311 32083 ft 400 kts 264°
2026-04-22 07:39 43.55004 122.21876 32083 ft 406 kts 257°
2026-04-22 07:39 43.52818 122.14666 32081 ft 413 kts 249°
2026-04-22 07:40 43.49829 122.07865 32082 ft 420 kts 242°
2026-04-22 07:40 43.46461 122.01311 32079 ft 421 kts 241°
2026-04-22 07:41 43.43078 121.94791 32079 ft 421 kts 241°
2026-04-22 07:41 43.39667 121.88236 32077 ft 421 kts 241°
2026-04-22 07:42 43.36258 121.81698 32075 ft 421 kts 241°
2026-04-22 07:42 43.32867 121.75213 32078 ft 421 kts 241°
2026-04-22 07:43 43.29436 121.68666 32076 ft 422 kts 241°
2026-04-22 07:43 43.26026 121.62175 32076 ft 422 kts 241°
2026-04-22 07:44 43.22607 121.55675 32077 ft 422 kts 241°
2026-04-22 07:44 43.19151 121.49127 32079 ft 423 kts 241°
2026-04-22 07:45 43.15734 121.42659 32072 ft 423 kts 240°
2026-04-22 07:45 43.12272 121.36125 32074 ft 423 kts 240°
2026-04-22 07:46 43.08826 121.29620 32072 ft 424 kts 240°
2026-04-22 07:46 43.05367 121.23100 32076 ft 426 kts 240°
2026-04-22 07:47 43.01895 121.16581 32075 ft 426 kts 240°
2026-04-22 07:47 42.98416 121.10066 32080 ft 426 kts 240°
2026-04-22 07:48 42.94908 121.03518 32080 ft 425 kts 239°
2026-04-22 07:48 42.91436 120.97047 32080 ft 426 kts 239°
2026-04-22 07:49 42.87943 120.90578 32080 ft 426 kts 239°
2026-04-22 07:49 42.84417 120.84093 32081 ft 426 kts 239°
2026-04-22 07:50 42.80896 120.77602 32076 ft 426 kts 239°
2026-04-22 07:50 42.77384 120.71126 32065 ft 426 kts 239°
2026-04-22 07:51 42.73877 120.64667 32073 ft 427 kts 239°
2026-04-22 07:51 42.70349 120.58184 32069 ft 428 kts 239°
2026-04-22 07:52 42.66801 120.51678 32072 ft 428 kts 239°
2026-04-22 07:52 42.63261 120.45197 32073 ft 429 kts 239°
2026-04-22 07:53 42.59717 120.38724 32076 ft 429 kts 239°
2026-04-22 07:53 42.56179 120.32272 32075 ft 428 kts 238°
2026-04-22 07:54 42.52625 120.25781 32069 ft 429 kts 238°
2026-04-22 07:54 42.49064 120.19306 32065 ft 430 kts 238°
2026-04-22 07:55 42.45501 120.12846 32063 ft 429 kts 238°
2026-04-22 07:55 42.41930 120.06393 32068 ft 430 kts 238°
2026-04-22 07:56 42.38355 119.99944 32063 ft 430 kts 238°
2026-04-22 07:56 42.34753 119.93462 32068 ft 430 kts 237°
2026-04-22 07:57 42.31163 119.87021 32078 ft 431 kts 238°
2026-04-22 07:57 42.27568 119.80579 32070 ft 432 kts 237°
2026-04-22 07:58 42.23948 119.74109 32067 ft 432 kts 237°
2026-04-22 07:58 42.20354 119.67694 32071 ft 432 kts 237°
2026-04-22 07:59 42.16717 119.61223 32069 ft 432 kts 237°
2026-04-22 07:59 42.13088 119.54777 32071 ft 432 kts 237°
2026-04-22 08:00 42.09470 119.48364 32069 ft 433 kts 237°
2026-04-22 08:00 42.05841 119.41950 32068 ft 432 kts 237°
2026-04-22 08:01 42.02204 119.35529 32064 ft 432 kts 237°
2026-04-22 08:01 41.98585 119.29131 32065 ft 432 kts 236°
2026-04-22 08:02 41.94937 119.22707 32063 ft 432 kts 236°
2026-04-22 08:02 41.91305 119.16333 32068 ft 433 kts 236°
2026-04-22 08:03 41.87626 119.09916 32065 ft 433 kts 236°
2026-04-22 08:03 41.83953 119.03545 32065 ft 433 kts 236°
2026-04-22 08:04 41.80292 118.97190 32066 ft 433 kts 236°
2026-04-22 08:04 41.78463 118.94011 31932 ft 434 kts 236°
2026-04-22 08:04 41.76608 118.90788 31666 ft 432 kts 236°
2026-04-22 08:05 41.74797 118.87645 31417 ft 430 kts 236°
2026-04-22 08:05 41.72980 118.84495 31163 ft 428 kts 236°
2026-04-22 08:05 41.71162 118.81348 30912 ft 424 kts 236°
2026-04-22 08:05 41.69372 118.78247 30664 ft 424 kts 236°
2026-04-22 08:06 41.67571 118.75133 30410 ft 425 kts 236°
2026-04-22 08:06 41.65758 118.72001 30145 ft 426 kts 236°
2026-04-22 08:06 41.63955 118.68890 29880 ft 426 kts 236°
2026-04-22 08:06 41.62145 118.65768 29617 ft 428 kts 236°
2026-04-22 08:07 41.60320 118.62624 29355 ft 428 kts 236°
2026-04-22 08:07 41.58513 118.59512 28886 ft 430 kts 236°
2026-04-22 08:07 41.56678 118.56357 28354 ft 431 kts 236°
2026-04-22 08:07 41.54825 118.53175 27826 ft 432 kts 236°
2026-04-22 08:08 41.52984 118.50021 27298 ft 433 kts 236°
2026-04-22 08:08 41.51159 118.46875 26772 ft 429 kts 237°
2026-04-22 08:08 41.49441 118.43661 26241 ft 425 kts 240°
2026-04-22 08:08 41.47862 118.40370 25721 ft 421 kts 243°
2026-04-22 08:09 41.46343 118.37059 25198 ft 418 kts 243°
2026-04-22 08:09 41.44835 118.33771 24661 ft 416 kts 242°
2026-04-22 08:09 41.43352 118.30531 24111 ft 413 kts 242°
2026-04-22 08:09 41.41858 118.27264 23591 ft 410 kts 243°
2026-04-22 08:10 41.40375 118.24035 23073 ft 407 kts 243°
2026-04-22 08:10 41.38909 118.20846 22557 ft 405 kts 243°
2026-04-22 08:10 41.37440 118.17654 22038 ft 402 kts 243°
2026-04-22 08:10 41.35997 118.14523 21529 ft 401 kts 243°
2026-04-22 08:11 41.34546 118.11379 21014 ft 399 kts 243°
2026-04-22 08:11 41.33105 118.08267 20500 ft 396 kts 243°
2026-04-22 08:11 41.31655 118.05135 19982 ft 395 kts 243°
2026-04-22 08:11 41.30230 118.02057 19472 ft 393 kts 243°
2026-04-22 08:12 41.28802 117.98975 18960 ft 392 kts 243°
2026-04-22 08:12 41.27374 117.95901 18450 ft 389 kts 243°
2026-04-22 08:12 41.25956 117.92851 17938 ft 387 kts 243°
2026-04-22 08:12 41.24551 117.89825 17424 ft 384 kts 243°
2026-04-22 08:13 41.23155 117.86825 16909 ft 381 kts 243°
2026-04-22 08:13 41.21782 117.83875 16410 ft 380 kts 243°
2026-04-22 08:13 41.20392 117.80894 15904 ft 377 kts 243°
2026-04-22 08:13 41.19022 117.77961 15668 ft 375 kts 243°
2026-04-22 08:14 41.17636 117.74992 15660 ft 377 kts 243°
2026-04-22 08:14 41.16271 117.72076 15656 ft 377 kts 243°
2026-04-22 08:14 41.14876 117.69101 15655 ft 378 kts 243°
2026-04-22 08:14 41.13490 117.66144 15656 ft 378 kts 243°
2026-04-22 08:15 41.12106 117.63199 15648 ft 378 kts 243°
2026-04-22 08:15 41.10720 117.60246 15644 ft 377 kts 243°
2026-04-22 08:15 41.09342 117.57316 15643 ft 378 kts 243°
2026-04-22 08:15 41.07941 117.54343 15642 ft 378 kts 243°
2026-04-22 08:16 41.06556 117.51404 15651 ft 378 kts 243°
2026-04-22 08:16 41.05113 117.48456 15646 ft 381 kts 238°
2026-04-22 08:16 41.03331 117.45837 15645 ft 388 kts 227°
2026-04-22 08:16 41.01190 117.43681 15644 ft 394 kts 216°
2026-04-22 08:17 40.98724 117.42042 15652 ft 398 kts 207°
2026-04-22 08:17 40.96108 117.40694 15656 ft 400 kts 205°
2026-04-22 08:17 40.93533 117.39421 15656 ft 400 kts 205°
2026-04-22 08:17 40.90899 117.38115 15655 ft 399 kts 205°
2026-04-22 08:18 40.88325 117.36827 15648 ft 399 kts 205°
2026-04-22 08:18 40.85701 117.35509 15653 ft 398 kts 206°
2026-04-22 08:18 40.83109 117.34195 15647 ft 399 kts 205°
2026-04-22 08:18 40.80541 117.32877 15609 ft 400 kts 205°
2026-04-22 08:19 40.77927 117.31538 15348 ft 397 kts 205°
2026-04-22 08:19 40.75361 117.30229 15089 ft 395 kts 205°
2026-04-22 08:19 40.72928 117.28627 14815 ft 386 kts 220°
2026-04-22 08:19 40.71074 117.26203 14560 ft 376 kts 239°
2026-04-22 08:20 40.69890 117.23190 14295 ft 367 kts 253°
2026-04-22 08:20 40.69040 117.20063 14047 ft 364 kts 255°
2026-04-22 08:20 40.68211 117.16960 13797 ft 353 kts 255°
2026-04-22 08:20 40.67401 117.13975 13738 ft 336 kts 255°
2026-04-22 08:21 40.66632 117.11170 13731 ft 321 kts 255°
2026-04-22 08:21 40.65877 117.08431 13721 ft 310 kts 255°
2026-04-22 08:21 40.65154 117.05833 13716 ft 296 kts 255°
2026-04-22 08:21 40.64448 117.03284 13716 ft 296 kts 255°
2026-04-22 08:22 40.63748 117.00761 13719 ft 296 kts 255°
2026-04-22 08:22 40.63037 116.98217 13727 ft 296 kts 255°
2026-04-22 08:22 40.62332 116.95692 13725 ft 295 kts 255°
2026-04-22 08:22 40.61623 116.93160 13730 ft 296 kts 255°
2026-04-22 08:23 40.60820 116.90669 13716 ft 299 kts 247°
2026-04-22 08:23 40.59687 116.88318 13717 ft 304 kts 238°
2026-04-22 08:23 40.58270 116.86250 13725 ft 308 kts 227°
2026-04-22 08:23 40.56639 116.84363 13730 ft 310 kts 225°
2026-04-22 08:24 40.55000 116.82542 13727 ft 310 kts 225°
2026-04-22 08:24 40.53357 116.80719 13729 ft 310 kts 225°
2026-04-22 08:24 40.51718 116.78889 13735 ft 310 kts 225°
2026-04-22 08:24 40.50070 116.77043 13733 ft 311 kts 225°
2026-04-22 08:25 40.48420 116.75191 13681 ft 312 kts 226°
2026-04-22 08:25 40.46783 116.73353 13476 ft 309 kts 225°
2026-04-22 08:25 40.45169 116.71539 13300 ft 307 kts 225°
2026-04-22 08:25 40.43502 116.69769 13109 ft 309 kts 217°
2026-04-22 08:26 40.41531 116.68579 12926 ft 315 kts 199°
2026-04-22 08:26 40.39362 116.68203 12741 ft 319 kts 180°
2026-04-22 08:26 40.37132 116.68469 12557 ft 319 kts 175°
2026-04-22 08:26 40.34958 116.68853 12381 ft 319 kts 174°
2026-04-22 08:27 40.32755 116.69247 12193 ft 318 kts 174°
2026-04-22 08:27 40.30556 116.69624 12015 ft 316 kts 174°
2026-04-22 08:27 40.28385 116.69983 11835 ft 315 kts 175°
2026-04-22 08:27 40.26220 116.70332 11661 ft 314 kts 175°
2026-04-22 08:28 40.24051 116.70676 11490 ft 312 kts 175°
2026-04-22 08:28 40.21907 116.71014 11320 ft 311 kts 175°
2026-04-22 08:28 40.19763 116.71350 11153 ft 310 kts 175°
2026-04-22 08:28 40.17629 116.71685 10985 ft 310 kts 175°
2026-04-22 08:29 40.15498 116.72017 10811 ft 308 kts 175°
2026-04-22 08:29 40.13362 116.72351 10630 ft 307 kts 175°
2026-04-22 08:29 40.11243 116.72683 10458 ft 306 kts 175°
2026-04-22 08:29 40.09135 116.73011 10264 ft 304 kts 174°
2026-04-22 08:30 40.07055 116.73334 10064 ft 303 kts 175°
2026-04-22 08:30 40.04952 116.73660 9865 ft 301 kts 174°
2026-04-22 08:30 40.02872 116.73984 9659 ft 300 kts 174°
2026-04-22 08:30 40.00805 116.74305 9463 ft 298 kts 174°
2026-04-22 08:31 39.98756 116.74624 9261 ft 296 kts 174°
2026-04-22 08:31 39.96711 116.74942 9069 ft 295 kts 174°
2026-04-22 08:31 39.92668 116.75571 8676 ft 291 kts 174°
2026-04-22 08:32 39.90669 116.75880 8482 ft 289 kts 174°
2026-04-22 08:32 39.88684 116.76188 8292 ft 288 kts 174°
2026-04-22 08:32 39.86682 116.76496 8091 ft 286 kts 174°
2026-04-22 08:32 39.84719 116.76799 7895 ft 284 kts 174°
2026-04-22 08:33 39.82762 116.77100 7700 ft 283 kts 173°
2026-04-22 08:33 39.80805 116.77399 7510 ft 282 kts 173°
2026-04-22 08:33 39.78853 116.77698 7313 ft 280 kts 173°
2026-04-22 08:33 39.76928 116.77997 7119 ft 278 kts 173°
2026-04-22 08:34 39.75021 116.78293 6937 ft 276 kts 172°
2026-04-22 08:34 39.73109 116.78588 6895 ft 275 kts 172°
2026-04-22 08:34 39.71209 116.78777 6881 ft 275 kts 185°
2026-04-22 08:34 39.69442 116.77924 6868 ft 275 kts 219°
2026-04-22 08:35 39.68226 116.76005 6889 ft 276 kts 237°
2026-04-22 08:35 39.67171 116.73919 6887 ft 277 kts 235°
2026-04-22 08:35 39.66075 116.71870 6885 ft 277 kts 234°
2026-04-22 08:35 39.64952 116.69869 6773 ft 278 kts 233°
2026-04-22 08:36 39.63796 116.67844 6565 ft 278 kts 235°
2026-04-22 08:36 39.63068 116.65559 6206 ft 279 kts 264°
2026-04-22 08:36 39.63341 116.63075 5790 ft 281 kts 293°
2026-04-22 08:36 39.64449 116.61083 5345 ft 273 kts 322°
2026-04-22 08:37 39.66036 116.59834 4989 ft 262 kts 332°
2026-04-22 08:37 39.67645 116.58729 4670 ft 262 kts 332°
2026-04-22 08:37 39.69249 116.57613 4368 ft 262 kts 332°
2026-04-22 08:37 39.70833 116.56493 4078 ft 258 kts 331°
2026-04-22 08:38 39.72388 116.55379 3796 ft 254 kts 331°
2026-04-22 08:38 39.73928 116.54271 3519 ft 251 kts 331°
2026-04-22 08:38 39.75443 116.53177 3249 ft 248 kts 331°
2026-04-22 08:38 39.76912 116.52116 3201 ft 235 kts 331°
2026-04-22 08:39 39.78294 116.51117 3168 ft 221 kts 331°
2026-04-22 08:39 39.79567 116.50035 3008 ft 218 kts 310°
2026-04-22 08:39 39.80223 116.48319 2758 ft 210 kts 274°
2026-04-22 08:39 39.80145 116.46471 2561 ft 206 kts 258°
2026-04-22 08:40 39.79900 116.44650 2440 ft 198 kts 253°
2026-04-22 08:40 39.79283 116.43156 2232 ft 185 kts 226°
2026-04-22 08:40 39.78298 116.42199 2001 ft 172 kts 190°
2026-04-22 08:40 39.77188 116.42178 1991 ft 150 kts 178°
2026-04-22 08:41 39.76163 116.42156 1975 ft 146 kts 181°
2026-04-22 08:41 39.75147 116.42097 2014 ft 144 kts 181°
2026-04-22 08:41 39.74158 116.42037 1982 ft 141 kts 181°
2026-04-22 08:41 39.73185 116.41954 1975 ft 141 kts 190°
2026-04-22 08:42 39.72261 116.41507 1975 ft 141 kts 201°
2026-04-22 08:42 39.71374 116.40993 1973 ft 140 kts 202°
2026-04-22 08:42 39.70438 116.40628 1964 ft 139 kts 182°
2026-04-22 08:42 39.69484 116.40491 1982 ft 140 kts 189°
2026-04-22 08:43 39.68520 116.40273 1979 ft 140 kts 186°
2026-04-22 08:43 39.67536 116.40176 1977 ft 140 kts 180°
2026-04-22 08:43 39.66558 116.40197 1979 ft 140 kts 176°
2026-04-22 08:43 39.65584 116.40282 1978 ft 140 kts 174°
2026-04-22 08:44 39.64613 116.40399 1977 ft 140 kts 174°
2026-04-22 08:44 39.63637 116.40533 1976 ft 140 kts 172°
2026-04-22 08:44 39.62667 116.40678 1978 ft 140 kts 173°
2026-04-22 08:44 39.61697 116.40826 1979 ft 140 kts 172°
2026-04-22 08:45 39.60726 116.40980 1979 ft 140 kts 172°
2026-04-22 08:45 39.59748 116.41135 1913 ft 141 kts 172°
2026-04-22 08:45 39.58775 116.41290 1736 ft 140 kts 172°
2026-04-22 08:45 39.57806 116.41443 1558 ft 140 kts 172°
2026-04-22 08:46 39.56840 116.41597 1384 ft 139 kts 173°
2026-04-22 08:46 39.55882 116.41749 1209 ft 139 kts 173°
2026-04-22 08:46 39.54919 116.41900 1025 ft 139 kts 172°
2026-04-22 08:46 39.53964 116.42051 845 ft 138 kts 172°
2026-04-22 08:47 39.53007 116.42203 660 ft 138 kts 175°
2026-04-22 08:47 39.52063 116.42351 473 ft 137 kts 174°
2026-04-22 08:47 39.51117 116.42502 302 ft 136 kts 173°
2026-04-22 08:47 39.50185 116.42648 130 ft 133 kts 173°
2026-04-22 08:48 39.49305 116.42790 91 ft 114 kts 171°
2026-04-22 08:48 39.48686 116.42887 90 ft 63 kts 173°
2026-04-22 08:48 39.48380 116.42936 90 ft 35 kts 174°
2026-04-22 08:48 39.48217 116.42944 90 ft 21 kts 185°
2026-04-22 08:49 39.48079 116.42893 90 ft 20 kts 199°
2026-04-22 08:49 39.48003 116.42832 90 ft 9 kts 250°
2026-04-22 08:49 39.48036 116.42768 90 ft 10 kts 345°
2026-04-22 08:49 39.48128 116.42754 90 ft 16 kts 353°
2026-04-22 08:50 39.48254 116.42733 90 ft 19 kts 353°
2026-04-22 08:50 39.48395 116.42711 90 ft 21 kts 353°
2026-04-22 08:50 39.48551 116.42687 90 ft 23 kts 353°
2026-04-22 08:50 39.48718 116.42660 90 ft 24 kts 353°
2026-04-22 08:51 39.48883 116.42634 90 ft 23 kts 354°
2026-04-22 08:51 39.49042 116.42609 90 ft 22 kts 353°
2026-04-22 08:51 39.49197 116.42584 90 ft 22 kts 353°
2026-04-22 08:51 39.49340 116.42562 90 ft 14 kts 353°
2026-04-22 08:52 39.49433 116.42520 90 ft 14 kts 325°
2026-04-22 08:52 39.49519 116.42445 90 ft 15 kts 327°
2026-04-22 08:52 39.49620 116.42403 90 ft 15 kts 354°
2026-04-22 08:52 39.49731 116.42385 90 ft 16 kts 353°
2026-04-22 08:53 39.49843 116.42368 90 ft 16 kts 353°
2026-04-22 08:53 39.49959 116.42350 90 ft 16 kts 353°
2026-04-22 08:53 39.50076 116.42332 90 ft 17 kts 353°
2026-04-22 08:53 39.50180 116.42314 90 ft 11 kts 346°
2026-04-22 08:54 39.50209 116.42228 90 ft 12 kts 263°
2026-04-22 08:54 39.50199 116.42116 90 ft 13 kts 263°
2026-04-22 08:54 39.50188 116.41997 90 ft 13 kts 263°
2026-04-22 08:54 39.50176 116.41872 90 ft 14 kts 263°
2026-04-22 08:55 39.50164 116.41741 90 ft 14 kts 263°
2026-04-22 08:55 39.50151 116.41607 90 ft 15 kts 263°
2026-04-22 08:55 39.50138 116.41467 90 ft 15 kts 263°
2026-04-22 08:55 39.50125 116.41326 90 ft 16 kts 263°
2026-04-22 08:56 39.50111 116.41180 90 ft 16 kts 263°
2026-04-22 08:56 39.50097 116.41032 90 ft 16 kts 263°
2026-04-22 08:56 39.50083 116.40881 90 ft 16 kts 264°
2026-04-22 08:56 39.50069 116.40735 90 ft 15 kts 264°
2026-04-22 08:57 39.50075 116.40636 90 ft 11 kts 307°
2026-04-22 08:57 39.50152 116.40608 90 ft 12 kts 353°
2026-04-22 08:57 39.50239 116.40594 90 ft 13 kts 353°
2026-04-22 08:57 39.50330 116.40579 90 ft 9 kts 353°
2026-04-22 08:58 39.50378 116.40558 90 ft 8 kts 324°
2026-04-22 08:58 39.50427 116.40509 90 ft 9 kts 324°
2026-04-22 08:58 39.50482 116.40456 90 ft 10 kts 324°
2026-04-22 08:58 39.50544 116.40395 90 ft 11 kts 324°
2026-04-22 08:59 39.50598 116.40347 90 ft 6 kts 350°
2026-04-22 08:59 39.50620 116.40383 90 ft 5 kts 71°
2026-04-22 08:59 39.50627 116.40426 90 ft 0 kts 78°